﻿TIME_UTC_SECONDS;TIME_UTC_STR;AIR_TEMP;TRACK_TEMP;HUMIDITY;PRESSURE;WIND_SPEED;WIND_DIRECTION;RAIN;
1665648067;13/10/2022 8:01:07;19,7222;19;77;1009,72;0;98;-1;
1665648127;13/10/2022 8:02:07;19,7778;19;77;1009,69;0;97;-1;
1665648197;13/10/2022 8:03:17;19,8889;19;77;1009,58;0;98;-1;
1665648262;13/10/2022 8:04:22;19,9444;19;77;1009,62;0;98;-1;
1665648328;13/10/2022 8:05:28;20,0556;19;76;1009,65;0;98;-1;
1665648393;13/10/2022 8:06:33;20,1667;19;76;1009,65;1,06093;153;-1;
1665648457;13/10/2022 8:07:37;20,2778;19;76;1009,65;1,06093;153;-1;
1665648518;13/10/2022 8:08:38;20,4444;19;76;1009,69;2,12187;166;-1;
1665648588;13/10/2022 8:09:48;20,6111;19,1;75;1009,69;0;173;-1;
1665648648;13/10/2022 8:10:48;20,7778;19,1;75;1009,69;0;173;-1;
1665648713;13/10/2022 8:11:53;20,9444;19,1;74;1009,72;1,06093;173;-1;
1665648773;13/10/2022 8:12:53;21,0556;19,1;73;1009,69;1,06093;173;-1;
1665648843;13/10/2022 8:14:03;21,2222;19,1;73;1009,75;1,06093;173;-1;
1665648908;13/10/2022 8:15:08;21,3333;19,2;72;1009,75;2,12187;173;-1;
1665648969;13/10/2022 8:16:09;21,4444;19,2;71;1009,75;2,12187;141;-1;
1665649039;13/10/2022 8:17:19;21,5556;19,2;71;1009,86;2,12187;111;-1;
1665649104;13/10/2022 8:18:24;21,7222;19,2;71;1009,79;1,06093;111;-1;
1665649174;13/10/2022 8:19:34;21,8889;19,2;70;1009,72;2,12187;144;-1;
1665649234;13/10/2022 8:20:34;22;19,3;70;1009,75;0;144;-1;
1665649299;13/10/2022 8:21:39;22,1111;19,3;69;1009,79;0;144;-1;
1665649364;13/10/2022 8:22:44;22,2222;19,5;69;1009,75;1,06093;142;-1;
1665649424;13/10/2022 8:23:44;22,2778;19,7;69;1009,75;0;142;-1;
1665649489;13/10/2022 8:24:49;22,3889;19,8;69;1009,69;0;142;-1;
1665649554;13/10/2022 8:25:54;22,4444;20;68;1009,79;1,06093;144;-1;
1665649615;13/10/2022 8:26:55;22,5;20,2;68;1009,72;0;144;-1;
1665649684;13/10/2022 8:28:04;22,5556;20,2;68;1009,79;1,06093;144;-1;
1665649745;13/10/2022 8:29:05;22,6667;20,3;67;1009,79;1,06093;144;-1;
1665649810;13/10/2022 8:30:10;22,7222;20,5;67;1009,79;2,12187;138;-1;
1665649875;13/10/2022 8:31:15;22,8333;20,5;67;1009,82;2,12187;138;-1;
1665649935;13/10/2022 8:32:15;22,8889;20,8;67;1009,89;0;128;-1;
1665650015;13/10/2022 8:33:35;23;20,8;66;1009,89;0;128;-1;
1665650075;13/10/2022 8:34:35;23;21;66;1009,89;1,06093;128;-1;
1665650145;13/10/2022 8:35:45;23,1111;21,1;66;1009,96;2,12187;128;-1;
1665650210;13/10/2022 8:36:50;23,1667;21,2;66;1009,86;2,12187;128;-1;
1665650276;13/10/2022 8:37:56;23,2778;21,4;66;1009,89;2,12187;128;-1;
1665650341;13/10/2022 8:39:01;23,3333;21,4;66;1009,89;1,06093;128;-1;
1665650406;13/10/2022 8:40:06;23,3889;21,6;65;1009,96;0;128;-1;
1665650471;13/10/2022 8:41:11;23,5;21,6;65;1010,02;0;128;-1;
1665650536;13/10/2022 8:42:16;23,5556;21,7;65;1009,99;1,06093;128;-1;
1665650596;13/10/2022 8:43:16;23,6111;21,8;65;1010,02;1,06093;128;-1;
1665650671;13/10/2022 8:44:31;23,6667;21,9;65;1009,99;0;128;-1;
1665650736;13/10/2022 8:45:36;23,7222;22;65;1009,96;0;128;-1;
1665650801;13/10/2022 8:46:41;23,7778;22,1;64;1010,02;3,1828;122;-1;
1665650866;13/10/2022 8:47:46;23,7778;22,2;64;1010,02;1,06093;124;-1;
1665650927;13/10/2022 8:48:47;23,8333;22,3;64;1010,09;2,12187;125;-1;
1665651002;13/10/2022 8:50:02;23,8889;22,4;64;1010,06;3,1828;125;-1;
1665651066;13/10/2022 8:51:06;23,8889;22,5;64;1010,09;2,12187;128;-1;
1665651132;13/10/2022 8:52:12;23,9444;22,6;64;1010,09;3,1828;126;-1;
1665651192;13/10/2022 8:53:12;23,9444;22,7;64;1010,09;3,1828;110;-1;
1665651257;13/10/2022 8:54:17;23,8889;22,8;64;1010,13;2,12187;109;-1;
1665651322;13/10/2022 8:55:22;23,8889;22,9;64;1010,23;3,1828;108;-1;
1665651387;13/10/2022 8:56:27;23,8333;23;64;1010,19;3,1828;90;-1;
1665651447;13/10/2022 8:57:27;23,7778;23;64;1010,19;3,1828;100;-1;
1665651513;13/10/2022 8:58:33;23,7778;23,1;64;1010,13;3,1828;121;-1;
1665651582;13/10/2022 8:59:42;23,7222;23,2;64;1010,19;2,12187;120;-1;
1665651652;13/10/2022 9:00:52;23,7222;23,3;64;1010,16;1,06093;121;-1;
1665651713;13/10/2022 9:01:53;23,7222;23,4;64;1010,26;2,12187;107;-1;
1665651778;13/10/2022 9:02:58;23,7222;23,5;64;1010,23;2,12187;106;-1;
1665651848;13/10/2022 9:04:08;23,7778;23,5;64;1010,23;1,06093;83;-1;
1665651918;13/10/2022 9:05:18;23,7778;23,7;64;1010,16;3,1828;107;-1;
1665651983;13/10/2022 9:06:23;23,7778;23,7;64;1010,19;2,12187;118;-1;
1665652043;13/10/2022 9:07:23;23,7778;23,9;64;1010,09;3,1828;113;-1;
1665652113;13/10/2022 9:08:33;23,7778;23,9;64;1010,13;0;119;-1;
1665652178;13/10/2022 9:09:38;23,8333;24;64;1010,09;4,24374;125;-1;
1665652249;13/10/2022 9:10:49;23,8333;24,1;64;1010,13;3,1828;128;-1;
1665652313;13/10/2022 9:11:53;23,8889;24,2;64;1010,16;2,12187;135;-1;
1665652374;13/10/2022 9:12:54;23,8889;24,3;64;1010,16;2,12187;132;-1;
1665652444;13/10/2022 9:14:04;23,9444;24,4;64;1010,16;3,1828;147;-1;
1665652504;13/10/2022 9:15:04;23,9444;24,4;64;1010,16;3,1828;142;-1;
1665652574;13/10/2022 9:16:14;24;24,6;64;1010,16;3,1828;111;-1;
1665652639;13/10/2022 9:17:19;24;24,7;63;1010,13;2,12187;92;-1;
1665652704;13/10/2022 9:18:24;24,0556;24,8;63;1010,06;4,24374;101;-1;
1665652769;13/10/2022 9:19:29;24,0556;24,8;63;1010,09;1,06093;98;-1;
1665652835;13/10/2022 9:20:35;24;24,9;63;1010,19;1,06093;121;-1;
1665652904;13/10/2022 9:21:44;24,0556;25;63;1010,16;4,24374;128;-1;
1665652974;13/10/2022 9:22:54;24,0556;25;63;1010,16;3,1828;111;-1;
1665653035;13/10/2022 9:23:55;24,0556;25,2;63;1010,13;3,1828;123;-1;
1665653105;13/10/2022 9:25:05;24,1111;25,2;63;1010,23;3,1828;105;-1;
1665653170;13/10/2022 9:26:10;24,1111;25,4;63;1010,16;1,06093;106;-1;
1665653235;13/10/2022 9:27:15;24,1667;25,4;63;1010,19;2,12187;128;-1;
1665653300;13/10/2022 9:28:20;24,2222;25,5;63;1010,19;3,1828;135;-1;
1665653365;13/10/2022 9:29:25;24,2222;25,6;63;1010,09;4,24374;142;-1;
1665653435;13/10/2022 9:30:35;24,2778;25,7;63;1010,09;2,12187;137;-1;
1665653500;13/10/2022 9:31:40;24,2778;25,8;63;1010,06;5,30467;139;-1;
1665653566;13/10/2022 9:32:46;24,2778;25,8;62;1010,09;2,12187;140;-1;
1665653635;13/10/2022 9:33:55;24,2778;26;62;1010,06;4,24374;132;-1;
1665653696;13/10/2022 9:34:56;24,3333;26;62;1009,99;3,1828;132;-1;
1665653766;13/10/2022 9:36:06;24,3333;26,1;62;1010,02;4,24374;141;-1;
1665653836;13/10/2022 9:37:16;24,3333;26,2;62;1010,06;4,24374;142;-1;
1665653896;13/10/2022 9:38:16;24,3889;26,2;62;1009,99;3,1828;110;-1;
1665653961;13/10/2022 9:39:21;24,3333;26,3;62;1009,96;1,06093;114;-1;
1665654021;13/10/2022 9:40:21;24,3889;26,4;62;1009,96;3,1828;89;-1;
1665654091;13/10/2022 9:41:31;24,3889;26,5;62;1010,02;4,24374;107;-1;
1665654156;13/10/2022 9:42:36;24,3889;26,6;62;1009,99;3,1828;118;-1;
1665654217;13/10/2022 9:43:37;24,3889;26,6;62;1009,99;1,06093;118;-1;
1665654287;13/10/2022 9:44:47;24,3889;26,8;62;1010,02;1,06093;119;-1;
1665654347;13/10/2022 9:45:47;24,4444;26,8;62;1010,09;3,1828;115;-1;
1665654412;13/10/2022 9:46:52;24,5;26,9;62;1010,09;3,1828;111;-1;
1665654472;13/10/2022 9:47:52;24,5;27;62;1009,99;3,1828;117;-1;
1665654542;13/10/2022 9:49:02;24,5556;27,1;62;1010,09;3,1828;92;-1;
1665654607;13/10/2022 9:50:07;24,5556;27,1;62;1010,09;1,06093;102;-1;
1665654672;13/10/2022 9:51:12;24,5556;27,3;62;1010,06;3,1828;99;-1;
1665654737;13/10/2022 9:52:17;24,5556;27,3;62;1010,09;0;100;-1;
1665654803;13/10/2022 9:53:23;24,5556;27,4;62;1010,09;2,12187;111;-1;
1665654872;13/10/2022 9:54:32;24,5556;27,5;62;1010,06;3,1828;111;-1;
